Location: Invercargill
(46.4000°S, 168.3500°E)
Time: 17:28:41
(UTC+13:00)

BREEZE-M DEB (TANK) - Pass Details

Date: 24 January 2019
Orbit: 303 x 13845 km, 49.6° (Epoch: 20 February)

Event Time Altitude Azimuth Distance (km) Brightness Sun altitude
Rises 23:34:13 0° 286° (WNW) 5,883 8.3 -16.7°
Reaches altitude 10° 23:39:40 10° 283° (WNW) 3,445 7.1 -17.3°
Maximum altitude 23:46:16 71° 198° (SSW) 603 3.1 -17.9°
Enters shadow 23:48:41 13° 113° (ESE) 1,308 4.6 -18.1°
